[[{"header":{"parameterUnit":"m.s-1","parameterCategory":1,"la1":30.2991,"la2":30.254,"lo1":-89.0895,"lo2":-89.0444,"dy":0.0017,"dx":0.0017,"nx":28,"ny":28,"refTime":"2024-05-09T03:00:00:Z","depth":0,"parameterNumber":2,"parameterNumberName":"U-component_of_WINDS"},"data":[0,0,0,0,0,0,0,0,0,0,0,0,0,0,0,0,0,0,0,0,0,0,0,0,0,0,0,0,0,0,0,0,0,0,0,0,0,0,0,0,0,0,0,0,0,0,0,0,0,0,0,0,0,0,0,0,0,0,-0.0424,-0.0423,0,-0.0417,-0.0417,-0.0417,-0.0399,-0.0398,-0.0398,-0.0398,-0.0391,-0.0392,-0.0392,0,0,0,0,0,0,0,0,0,0,0,0,0,-0.0421,-0.0422,-0.0424,-0.0423,-0.0423,-0.0417,-0.0417,-0.0417,-0.0399,-0.0398,-0.0398,-0.0398,-0.0391,-0.0392,-0.0392,0,0,0,0,0,0,0,0,0,0,0,0,0,-0.0419,-0.0422,-0.0424,-0.0414,-0.0413,-0.0417,-0.0417,-0.0417,-0.0399,-0.0398,-0.0398,-0.0397,-0.0391,-0.0392,-0.0392,-0.0405,0,0,-0.0393,-0.0393,0,0,0,0,0,0,0,0,-0.0419,-0.0419,-0.0415,-0.0414,-0.0413,-0.0408,-0.0414,-0.0413,-0.0399,-0.0404,-0.0398,-0.0397,-0.0397,-0.0397,-0.0397,-0.0405,-0.0405,-0.0393,-0.0393,-0.0393,-0.0393,0,0,0,0,0,0,0,-0.042,-0.042,-0.0421,-0.0415,-0.0414,-0.041,-0.0409,-0.0413,-0.0404,-0.0404,-0.0402,-0.0402,-0.0397,-0.0397,-0.0397,-0.0405,-0.0393,-0.0393,-0.0393,-0.0393,-0.0423,-0.0423,0,0,0,0,0,0,-0.0421,-0.042,-0.0421,-0.0421,-0.0415,-0.041,-0.0409,-0.041,-0.0404,-0.0403,-0.0402,-0.0401,-0.0397,-0.0397,-0.0397,-0.0411,-0.0393,-0.0393,-0.0393,-0.0422,-0.0423,-0.0423,0,0,0,0,0,0,-0.0421,-0.0421,-0.0421,-0.042,-0.042,-0.0411,-0.0412,-0.0411,-0.0411,-0.0403,-0.0401,-0.0404,-0.0396,-0.0396,-0.0403,-0.0411,-0.0393,-0.0394,-0.0421,-0.0422,-0.0423,-0.0441,0,0,0,0,0,0,-0.0421,-0.0421,-0.0426,-0.042,-0.042,-0.0428,-0.0413,-0.0411,-0.0411,-0.0409,-0.0404,-0.0403,-0.0396,-0.0403,-0.0403,-0.0411,-0.0394,-0.0421,-0.0422,-0.0423,-0.044,-0.0443,-0.0445,0,0,0,0,0,-0.0421,-0.0432,-0.0427,-0.0427,-0.0426,-0.0428,-0.0428,-0.042,-0.0412,-0.0417,-0.0412,-0.0403,-0.041,-0.0404,-0.0404,-0.0412,-0.042,-0.0421,-0.0423,-0.0439,-0.0442,-0.0445,0,0,0,0,0,0,-0.0439,-0.0431,-0.0425,-0.0434,-0.0432,-0.0425,-0.0431,-0.0424,-0.0424,-0.0422,-0.0412,-0.0411,-0.0419,-0.0416,-0.0409,-0.0425,-0.0414,-0.0415,-0.0426,-0.0429,-0.0432,-0.0432,-0.0394,0,0,0,0,0,-0.0444,-0.0447,-0.044,-0.0448,-0.0448,-0.044,-0.0441,-0.0434,-0.0432,-0.0431,-0.0426,-0.0425,-0.0426,-0.0428,-0.0429,-0.044,-0.0438,-0.0446,-0.0448,-0.0451,-0.0452,-0.0457,-0.046,-0.0428,-0.0428,-0.0428,0,0,-0.0455,-0.0451,-0.0453,-0.0452,-0.045,-0.0453,-0.0439,-0.0443,-0.0445,-0.0431,-0.0437,-0.0434,-0.0432,-0.044,-0.0444,-0.0438,-0.046,-0.0452,-0.0454,-0.0454,-0.0459,-0.0462,-0.0465,-0.0429,-0.0429,-0.0429,0,0,-0.0475,-0.0472,-0.0479,-0.0477,-0.0474,-0.0468,-0.047,-0.0465,-0.0462,-0.0468,-0.0457,-0.046,-0.0464,-0.0462,-0.0462,-0.0482,-0.0474,-0.0483,-0.0496,-0.0501,-0.0504,-0.0506,-0.0513,-0.0515,-0.0484,-0.0484,-0.0484,0,-0.0489,-0.0493,-0.0484,-0.0488,-0.0488,-0.0476,-0.0483,-0.0481,-0.0479,-0.0479,-0.0473,-0.0477,-0.0474,-0.0482,-0.0487,-0.0487,-0.0489,-0.0483,-0.0504,-0.0506,-0.0508,-0.0514,-0.0517,-0.0485,-0.0485,-0.0485,-0.0485,0,-0.0509,-0.0512,-0.0518,-0.0515,-0.0516,-0.0522,-0.0514,-0.0516,-0.051,-0.0505,-0.0511,-0.0508,-0.0508,-0.051,-0.0504,-0.0517,-0.0513,-0.0506,-0.0495,-0.0512,-0.0518,-0.052,-0.0487,-0.0486,-0.0486,-0.0486,0,0,-0.054,-0.0533,-0.0535,-0.0533,-0.0529,-0.0531,-0.0537,-0.0537,-0.0538,-0.0537,-0.0541,-0.0545,-0.0537,-0.0537,-0.0531,-0.0536,-0.0552,-0.0528,-0.0527,-0.0532,-0.0565,-0.0571,-0.0574,-0.0547,-0.0547,-0.0547,-0.0565,0,-0.0559,-0.0567,-0.0559,-0.0569,-0.0571,-0.056,-0.0565,-0.0563,-0.0559,-0.0561,-0.0556,-0.0558,-0.0549,-0.0549,-0.0553,-0.0549,-0.0558,-0.0548,-0.055,-0.055,-0.055,-0.0577,-0.0582,-0.0599,-0.0568,-0.0568,-0.0568,0,-0.0581,-0.0581,-0.0591,-0.0586,-0.0587,-0.0591,-0.059,-0.0592,-0.059,-0.0586,-0.0586,-0.0579,-0.0584,-0.0573,-0.058,-0.0573,-0.0574,-0.0572,-0.0572,-0.0571,-0.056,-0.0576,-0.0605,-0.0607,-0.0572,-0.0572,-0.0571,0,-0.0602,-0.0604,-0.061,-0.061,-0.0604,-0.0607,-0.0605,-0.0602,-0.0602,-0.0602,-0.0602,-0.0603,-0.0603,-0.0604,-0.0597,-0.059,-0.0604,-0.0593,-0.0601,-0.0601,-0.0604,-0.0604,-0.0632,-0.0606,-0.0606,-0.0606,-0.0606,0,-0.0623,-0.063,-0.0619,-0.0623,-0.063,-0.0621,-0.0628,-0.0625,-0.0623,-0.0626,-0.0616,-0.0619,-0.061,-0.0613,-0.0607,-0.0613,-0.0614,-0.0611,-0.0609,-0.0611,-0.0612,-0.0611,-0.0609,-0.0606,-0.0606,-0.0606,-0.0606,0,-0.0647,-0.0641,-0.0646,-0.0641,-0.064,-0.0645,-0.064,-0.0643,-0.0639,-0.0643,-0.0643,-0.0636,-0.0638,-0.0632,-0.0633,-0.0629,-0.0638,-0.0635,-0.0638,-0.0637,-0.0645,-0.0644,-0.0674,-0.0677,-0.0649,-0.065,-0.065,0,-0.0661,-0.0665,-0.066,-0.0661,-0.066,-0.0662,-0.0662,-0.0654,-0.0655,-0.0653,-0.0656,-0.0658,-0.0658,-0.0662,-0.0657,-0.0658,-0.0654,-0.0665,-0.0654,-0.0656,-0.0654,-0.0653,-0.0653,-0.0666,-0.0667,-0.0667,-0.0667,0,-0.0685,-0.0682,-0.0683,-0.0683,-0.0684,-0.0683,-0.0682,-0.0684,-0.0675,-0.0677,-0.0678,-0.0679,-0.068,-0.0681,-0.0681,-0.0679,-0.0672,-0.0671,-0.0672,-0.0674,-0.0676,-0.0675,-0.0644,-0.067,-0.067,-0.0669,-0.0669,-0.0669,-0.0704,-0.0708,-0.0704,-0.0706,-0.0704,-0.0703,-0.0706,-0.0702,-0.0703,-0.0703,-0.0699,-0.0702,-0.0699,-0.0698,-0.0697,-0.0699,-0.0694,-0.0697,-0.0697,-0.0698,-0.0699,-0.0676,-0.0699,-0.0699,-0.0699,-0.0699,-0.0699,0,-0.0728,-0.0725,-0.0727,-0.0725,-0.0726,-0.072,-0.0718,-0.072,-0.0722,-0.072,-0.0721,-0.0723,-0.0724,-0.072,-0.072,-0.0723,-0.072,-0.0723,-0.0723,-0.0722,-0.0704,-0.0702,-0.0726,-0.0726,-0.0726,-0.0726,-0.0726,-0.0726,-0.074,-0.0746,-0.0742,-0.0746,-0.0744,-0.0746,-0.0746,-0.0745,-0.0744,-0.0747,-0.0747,-0.0744,-0.0742,-0.0742,-0.0743,-0.0741,-0.0742,-0.0747,-0.0744,-0.0726,-0.0724,-0.0721,-0.0719,-0.0747,-0.0747,-0.0762,-0.0763,-0.0763]},{"header":{"parameterUnit":"m.s-1","parameterCategory":1,"la1":30.2991,"la2":30.254,"lo1":-89.0895,"lo2":-89.0444,"dy":0.0017,"dx":0.0017,"nx":28,"ny":28,"refTime":"2024-05-09T03:00:00:Z","depth":0,"parameterNumber":3,"parameterNumberName":"V-component_of_WINDS"},"data":[0,0,0,0,0,0,0,0,0,0,0,0,0,0,0,0,0,0,0,0,0,0,0,0,0,0,0,0,0,0,0,0,0,0,0,0,0,0,0,0,0,0,0,0,0,0,0,0,0,0,0,0,0,0,0,0,0,0,5.5754,5.5755,0,5.5882,5.5883,5.5884,5.5928,5.5927,5.5927,5.5926,5.6051,5.6055,5.6058,0,0,0,0,0,0,0,0,0,0,0,0,0,5.5543,5.5546,5.5754,5.5755,5.5757,5.5881,5.5883,5.5885,5.5928,5.5927,5.5927,5.5926,5.605,5.6054,5.6059,0,0,0,0,0,0,0,0,0,0,0,0,0,5.5649,5.5548,5.5753,5.5794,5.5799,5.5881,5.5883,5.5885,5.5928,5.5927,5.5927,5.5926,5.6048,5.6054,5.6059,5.6109,0,0,5.6077,5.6079,0,0,0,0,0,0,0,0,5.5643,5.5656,5.5786,5.5791,5.5797,5.5888,5.5854,5.596,5.5928,5.5879,5.5926,5.5926,5.5997,5.6007,5.6032,5.6115,5.612,5.6077,5.6081,5.6083,5.6085,0,0,0,0,0,0,0,5.5635,5.5651,5.5804,5.5788,5.5794,5.5804,5.5818,5.5875,5.594,5.5883,5.5886,5.5901,5.6,5.6027,5.6035,5.6122,5.6077,5.6082,5.6086,5.6088,5.6255,5.6256,0,0,0,0,0,0,5.5622,5.5645,5.58,5.5808,5.5716,5.5808,5.5824,5.5859,5.594,5.5951,5.5902,5.5903,5.6017,5.6029,5.604,5.6105,5.6083,5.6088,5.6092,5.6254,5.6255,5.6256,0,0,0,0,0,0,5.5617,5.5635,5.5795,5.5727,5.5749,5.5813,5.5852,5.5862,5.589,5.5954,5.5966,5.5918,5.6017,5.6032,5.6093,5.611,5.6091,5.6096,5.6252,5.6254,5.6255,5.6235,0,0,0,0,0,0,5.5611,5.5633,5.5654,5.5728,5.5752,5.5847,5.5853,5.5865,5.59,5.5902,5.5972,5.5983,5.6018,5.6084,5.6098,5.6118,5.6101,5.6251,5.6253,5.6255,5.6235,5.6236,5.6237,0,0,0,0,0,5.5603,5.5641,5.5655,5.5673,5.5779,5.5848,5.5861,5.5903,5.5901,5.5922,5.5964,5.5981,5.6106,5.609,5.6106,5.6128,5.625,5.6253,5.6255,5.6234,5.6236,5.6237,0,0,0,0,0,0,5.5565,5.5651,5.5667,5.5731,5.5782,5.5855,5.5882,5.5903,5.5953,5.5953,5.6001,5.6016,5.6073,5.6106,5.6087,5.6181,5.6179,5.6185,5.6158,5.616,5.6161,5.6151,5.6105,0,0,0,0,0,5.5564,5.5614,5.5687,5.5735,5.5761,5.5817,5.5848,5.5876,5.593,5.5951,5.5997,5.6047,5.6099,5.6131,5.6181,5.624,5.6256,5.6263,5.6264,5.6264,5.6269,5.6304,5.6308,5.6264,5.6264,5.6264,0,0,5.5562,5.5616,5.5644,5.5729,5.5772,5.5822,5.5835,5.5886,5.5923,5.5958,5.6019,5.6055,5.6114,5.6175,5.6203,5.6204,5.6285,5.6267,5.6267,5.6272,5.6307,5.6311,5.6314,5.6265,5.6265,5.6265,0,0,5.5585,5.563,5.5677,5.5721,5.5787,5.5825,5.5836,5.5907,5.5932,5.5995,5.6023,5.6067,5.6153,5.6195,5.6228,5.6269,5.6287,5.6284,5.629,5.6323,5.6327,5.633,5.6346,5.6351,5.6288,5.6288,5.6288,0,5.5574,5.5652,5.5698,5.5749,5.5786,5.5823,5.587,5.591,5.5987,5.6011,5.6011,5.6123,5.6165,5.6236,5.6247,5.6272,5.6286,5.6276,5.6323,5.6327,5.6331,5.6346,5.6352,5.6287,5.6287,5.6287,5.6287,0,5.5635,5.5689,5.5718,5.5796,5.5836,5.5885,5.5938,5.5972,5.5997,5.6034,5.6098,5.6151,5.6213,5.6232,5.6255,5.6308,5.6306,5.6314,5.6313,5.6333,5.6349,5.6355,5.6286,5.6286,5.6286,5.6287,0,0,5.5635,5.5741,5.5751,5.5788,5.5864,5.5906,5.5956,5.602,5.6049,5.6102,5.6146,5.6219,5.6228,5.6265,5.6293,5.6323,5.6354,5.6327,5.6329,5.6331,5.6416,5.641,5.6416,5.6366,5.6368,5.6369,5.6411,0,5.5668,5.5763,5.5807,5.5882,5.5932,5.5969,5.6014,5.6065,5.6101,5.6148,5.6188,5.624,5.6247,5.627,5.6301,5.6343,5.6371,5.6341,5.6407,5.6408,5.6391,5.6424,5.6417,5.6455,5.6417,5.6418,5.6419,0,5.5719,5.5776,5.5856,5.5929,5.5952,5.5991,5.6054,5.6099,5.6158,5.6183,5.6225,5.6254,5.6308,5.6303,5.6378,5.6357,5.6386,5.6411,5.6414,5.6421,5.6415,5.6433,5.6468,5.6473,5.6429,5.6428,5.6427,0,5.5713,5.5808,5.587,5.59,5.5986,5.6013,5.605,5.6108,5.6144,5.6199,5.6223,5.6282,5.6314,5.6359,5.6402,5.6395,5.6474,5.6472,5.6495,5.6494,5.651,5.6508,5.655,5.6528,5.6528,5.6528,5.6528,0,5.5745,5.5793,5.5868,5.5906,5.5961,5.6011,5.6063,5.6102,5.6155,5.62,5.6234,5.6275,5.633,5.6378,5.6412,5.647,5.6483,5.6504,5.6513,5.6502,5.6499,5.6522,5.652,5.653,5.6529,5.6529,5.6529,0,5.5747,5.5799,5.5869,5.5946,5.5967,5.6004,5.6069,5.6106,5.6146,5.6203,5.6219,5.628,5.6338,5.6387,5.6462,5.6485,5.6546,5.6555,5.6526,5.6531,5.6552,5.6549,5.661,5.6621,5.659,5.6591,5.6591,0,5.5764,5.5803,5.5885,5.592,5.5957,5.6011,5.6049,5.61,5.6138,5.621,5.6238,5.63,5.6352,5.6444,5.6494,5.6552,5.6564,5.6581,5.6572,5.6561,5.6565,5.6562,5.6567,5.6581,5.6581,5.6582,5.6582,0,5.579,5.5815,5.587,5.5935,5.598,5.6033,5.6086,5.6112,5.6172,5.6213,5.6275,5.6315,5.6395,5.6456,5.652,5.6556,5.6579,5.6584,5.6593,5.6582,5.6564,5.6575,5.6529,5.6582,5.6582,5.6582,5.6582,5.6582,5.5801,5.5838,5.5902,5.5963,5.6009,5.6059,5.6099,5.6145,5.6198,5.6268,5.6294,5.6358,5.6417,5.6507,5.6544,5.6593,5.6596,5.6608,5.6611,5.6613,5.6612,5.6556,5.6605,5.6605,5.6605,5.6605,5.6605,0,5.5829,5.5874,5.5929,5.6005,5.6052,5.6072,5.6133,5.6171,5.6227,5.6282,5.6334,5.6405,5.6465,5.6521,5.6583,5.6613,5.6625,5.6627,5.6626,5.6634,5.6606,5.6593,5.6617,5.6617,5.6617,5.6617,5.6617,5.6617,5.585,5.5914,5.5946,5.6033,5.6077,5.6142,5.6175,5.6221,5.6265,5.6344,5.6395,5.6432,5.6488,5.6555,5.661,5.6625,5.6647,5.6647,5.6664,5.6637,5.6636,5.6634,5.6622,5.6651,5.6651,5.6688,5.6688,5.6689]}]]